Yiewsley, United Kingdom

9:01 PM GMT on December 18, 2017 (GMT +0000)
Yiewsley

Weather History for 03772 - August, 2013

Change the Weather History Date:

Tuesday, August 20, 2013

  Actual Average Record
Temperature  
Mean Temperature 64 °F -  
Max Temperature 76 °F 68 °F - ()
Min Temperature 53 °F 53 °F - ()
Growing Degree Days 14 (Base 50)    
Moisture  
Dew Point 49 °F    
Average Humidity 58    
Maximum Humidity 88    
Minimum Humidity 27    
Precipitation  
Precipitation 0.00 in - - ()
Sea Level Pressure  
Sea Level Pressure 30.34 in    
Wind  
Wind Speed 5 mph ()    
Max Wind Speed 13 mph    
Max Gust Speed 21 mph    
Visibility 10.0 miles    
Events      
T = Trace of Precipitation, MM = Missing Value Source: Averaged Metar Reports

Daily Weather History Graph

Daily Weather History Graph

Search for Another Location

Airport or City:

Trip Planner

Search our weather history database for the weather conditions in past years. The results will help you decide how hot, cold, wet, or windy it might be!

Date:

Astronomy

Aug. 20, 2013 Rise Set
Actual Time 5:55 AM BST 8:13 PM BST
Civil Twilight 5:18 AM BST 8:50 PM BST
Nautical Twilight 4:32 AM BST 9:36 PM BST
Astronomical Twilight 3:38 AM BST 10:29 PM BST
Moon 7:29 PM BST (8/20) 5:09 AM BST (8/20)
Length of Visible Light 15h 31m
Length of Day
14h 18m
Waxing Gibbous, 99% of the Moon is Illuminated
Aug 20
Waxing Gibbous
Aug 21
Full
Aug 28
Last Quarter
Sep 5
New
Sep 12
First Quarter

Hourly Weather History & Observations

Time (BST) Temp. Dew Point Humidity Pressure Visibility Wind Dir Wind Speed Gust Speed Precip Events Conditions
12:20 AM 59.0 °F 48.2 °F 67% 30.33 in - West 4.6 mph - N/A   Clear
12:50 AM 58 °F 48 °F 59% 30.33 in 19 mi West 4.6 mph - -  
12:50 AM 59.0 °F 48.2 °F 67% 30.33 in - West 5.8 mph - N/A   Clear
1:20 AM 57.2 °F 48.2 °F 72% 30.33 in 6.2 mi West 8.1 mph - N/A   Unknown
1:50 AM 57.2 °F 48.2 °F 72% 30.33 in 6.2 mi West 4.6 mph - N/A   Unknown
2:20 AM 57.2 °F 50.0 °F 77% 30.33 in 6.2 mi WNW 3.5 mph - N/A   Unknown
2:50 AM 55.4 °F 48.2 °F 77% 30.33 in - WNW 3.5 mph - N/A   Clear
3:20 AM 55.4 °F 50.0 °F 82% 30.33 in - WNW 2.3 mph - N/A   Clear
3:50 AM 53 °F 49 °F 81% 30.35 in 16 mi WNW 1.2 mph - -  
3:50 AM 55.4 °F 50.0 °F 82% 30.33 in - Calm Calm - N/A   Clear
4:20 AM 55.4 °F 50.0 °F 82% 30.33 in - Calm Calm - N/A   Clear
4:50 AM 55.4 °F 51.8 °F 88% 30.36 in - WNW 3.5 mph - N/A   Clear
5:20 AM 55.4 °F 51.8 °F 88% 30.36 in - Variable 3.5 mph - N/A   Clear
5:50 AM 55.4 °F 51.8 °F 88% 30.36 in - Variable 3.5 mph - N/A   Clear
6:20 AM 55.4 °F 51.8 °F 88% 30.36 in - WSW 4.6 mph - N/A   Clear
6:50 AM 57 °F 52 °F 78% 30.37 in 16 mi West 4.6 mph - -  
6:50 AM 55.4 °F 51.8 °F 88% 30.36 in - Variable 2.3 mph - N/A   Clear
7:20 AM 57.2 °F 51.8 °F 82% 30.36 in - Calm Calm - N/A   Clear
7:50 AM 59.0 °F 53.6 °F 82% 30.36 in - SW 5.8 mph - N/A   Clear
8:20 AM 59.0 °F 53.6 °F 82% 30.36 in - WNW 4.6 mph - N/A   Clear
8:50 AM 60.8 °F 53.6 °F 77% 30.36 in - Variable 2.3 mph - N/A   Clear
9:20 AM 62.6 °F 53.6 °F 72% 30.36 in - West 4.6 mph - N/A   Clear
9:50 AM 67 °F 50 °F 43% 30.37 in 19 mi SW 4.6 mph - -  
9:50 AM 66.2 °F 51.8 °F 60% 30.36 in - Variable 5.8 mph - N/A   Clear
10:20 AM 68.0 °F 50.0 °F 52% 30.36 in - SW 5.8 mph - N/A   Clear
10:50 AM 68.0 °F 48.2 °F 49% 30.36 in 6.2 mi SSW 6.9 mph - N/A   Unknown
11:20 AM 69.8 °F 48.2 °F 46% 30.36 in 6.2 mi SSW 5.8 mph - N/A   Unknown
11:50 AM 71.6 °F 48.2 °F 43% 30.36 in 6.2 mi WSW 8.1 mph 20.7 mph N/A   Scattered Clouds
12:20 PM 71.6 °F 48.2 °F 43% 30.36 in 6.2 mi WSW 9.2 mph 20.7 mph N/A   Scattered Clouds
12:50 PM 74 °F 48 °F 28% 30.37 in 22 mi SW 5.8 mph - -  
12:50 PM 71.6 °F 46.4 °F 41% 30.36 in 6.2 mi WSW 9.2 mph - N/A   Scattered Clouds
1:20 PM 71.6 °F 48.2 °F 43% 30.36 in 6.2 mi WSW 8.1 mph - N/A   Scattered Clouds
1:50 PM 75.2 °F 46.4 °F 36% 30.36 in 6.2 mi West 9.2 mph - N/A   Unknown
2:20 PM 73.4 °F 44.6 °F 36% 30.36 in - West 6.9 mph - N/A   Clear
2:50 PM 75.2 °F 46.4 °F 36% 30.36 in - WNW 5.8 mph - N/A   Clear
3:20 PM 75.2 °F 46.4 °F 36% 30.33 in - Variable 5.8 mph - N/A   Clear
3:50 PM 76 °F 48 °F 27% 30.34 in 19 mi SW 8.1 mph - -   Scattered Clouds
3:50 PM 73.4 °F 46.4 °F 38% 30.33 in - SW 8.1 mph - N/A   Clear
4:20 PM 75.2 °F 46.4 °F 36% 30.33 in - SW 5.8 mph - N/A   Clear
4:50 PM 75.2 °F 46.4 °F 36% 30.33 in - West 6.9 mph - N/A   Clear
5:20 PM 75.2 °F 46.4 °F 36% 30.30 in - West 6.9 mph - N/A   Clear
5:50 PM 75.2 °F 46.4 °F 36% 30.30 in - WSW 6.9 mph - N/A   Clear
6:20 PM 75.2 °F 46.4 °F 36% 30.30 in - WSW 5.8 mph - N/A   Clear
6:50 PM 73 °F 48 °F 29% 30.30 in 22 mi SSW 5.8 mph - -  
6:50 PM 73.4 °F 46.4 °F 38% 30.30 in 6.2 mi South 4.6 mph - N/A   Unknown
7:20 PM 73.4 °F 46.4 °F 38% 30.30 in 6.2 mi WSW 4.6 mph - N/A   Unknown
7:50 PM 71.6 °F 48.2 °F 43% 30.30 in - SW 9.2 mph - N/A   Clear
8:20 PM 69.8 °F 50.0 °F 49% 30.30 in - SSW 9.2 mph - N/A   Clear
8:50 PM 68.0 °F 51.8 °F 56% 30.30 in - SW 11.5 mph - N/A   Clear
9:20 PM 68.0 °F 51.8 °F 56% 30.30 in - SW 12.7 mph - N/A   Clear
9:50 PM 66 °F 52 °F 52% 30.32 in 16 mi SW 12.7 mph - -  
9:50 PM 66.2 °F 51.8 °F 60% 30.33 in - SW 12.7 mph - N/A   Clear
10:20 PM 66.2 °F 51.8 °F 60% 30.33 in - WSW 10.4 mph - N/A   Clear
10:50 PM 64.4 °F 53.6 °F 68% 30.33 in - West 9.2 mph - N/A   Clear
11:20 PM 64.4 °F 53.6 °F 68% 30.33 in - WSW 8.1 mph - N/A   Clear
11:50 PM 60.8 °F 51.8 °F 72% 30.33 in - West 4.6 mph - N/A   Clear